www.pogodaiklimat.ru

Погода и климат >> Архив погоды >> Чехия >> Простеёв


ПОГОДА в Простеёве

  • Прогноз погоды в Простеёве
  • Монитор погоды в Простеёве

АРХИВ ПОГОДЫ в Простеёве

Время (UTC), дата Ветер
(напр.,м/с)
 
Видим.   Явления Облачность Т
(С)
Тd
(С)
f
(%)
Тe
(С)
Тes
(С)
Комфортность P
(гПа)
Po
(гПа)
Тmin
(С)
Tmax
(С)
R
(мм)
R24
(мм)
S
(см)
04 12.06 СЗ 1 10 км 1/0
[Ci fib]
+17.7 +17.7 100 +19 +19 1011.8 986.6
05 12.06 В 1 15 км 1/0
[Ci fib]
+21.3 +18.3 83 +26 +28 душно 1011.7 986.8
06 12.06 ЮВ 4 20 км 1/0
[Ci fib]
+24.0 +18.6 72 +29 +32 душно 1011.4 986.7 +16.2
07 12.06 Ю 7 25 км 1/0
[Ci fib]
+25.6 +17.5 61 +30 +32 душно 1011.6 987.1
08 12.06 Ю 8
{13}
25 км 1/0
[Ci fib]
+26.9 +17.4 56 +31 +33 душно 1011.2 986.8
09 12.06 Ю 9
{13}
25 км 3/1 1300 м
[Cu hum Ci fib]
+27.9 +17.1 52 +32 +33 душно 1011.3 986.9
10 12.06 Ю 9
{12}
25 км 4/3 1350 м
[Cu hum Ci fib]
+28.4 +17.0 50 +32 +33 душно 1011.3 987.0
11 12.06 Ю 9
{14}
25 км 3/3 1440 м
[Cu hum]
+29.2 +18.0 51 +34 +35 очень
душно
1010.8 986.6
12 12.06 Ю 9
{14}
25 км 3/3 1500 м
[Cu hum]
+29.6 +17.4 48 +34 +35 очень
душно
1010.6 986.4
13 12.06 Ю 9
{15}
25 км 1/1 1500 м
[Cu hum]
+29.7 +18.2 50 +34 +36 очень
душно
1010.3 986.1
14 12.06 Ю 9
{15}
25 км ясно +29.9 +18.7 51 +35 +36 очень
душно
1009.8 985.7
15 12.06 Ю 8
{15}
25 км ясно +29.7 +18.2 50 +34 +36 очень
душно
1009.6 985.4
16 12.06 Ю 9
{13}
25 км ясно +29.0 +17.2 49 +33 +33 очень
душно
1009.2 985.0
17 12.06 Ю 7
{13}
25 км ясно +28.1 +17.6 53 +32 +33 душно 1009.3 985.0
18 12.06 Ю 4
{15}
25 км 3/0
[Ci sp]
+26.5 +18.1 60 +31 +31 душно 1009.4 985.0 +30.0
19 12.06 Ю 5 20 км 3/0
[Ci sp]
+24.7 +18.2 67 +29 +29 душно 1009.9 985.3
20 12.06 ЮВ 2 15 км 4/0
[Ac trans Ci]
+22.9 +18.2 75 +29 +29 очень
душно
1010.7 986.0
21 12.06 Ю 1 15 км 4/0
[Ci fib]
+21.5 +17.9 80 +26 +26 душно 1011.5 986.6
22 12.06 штиль 0 15 км 5/0
[Ac As]
+20.8 +18.4 86 +25 +25 комфорт 1011.9 987.0
23 12.06 В 1 15 км 4/0
[Ac trans]
+20.0 +18.1 89 +24 +24 комфорт 1012.0 987.0
00 13.06 ЮЗ 1 15 км 3/0
[Ac trans]
+19.4 +18.1 92 +23 +23 комфорт 1011.9 986.8
01 13.06 штиль 0 15 км 1/0
[Ac trans]
+18.4 +17.4 94 +19 +19 1011.8 986.6
02 13.06 З 1 15 км 4/0
[Ac trans]
+18.0 +18.0 100 +19 +19 1011.8 986.6
03 13.06 штиль 0 20 км 3/0
[Ac As]
+18.4 +18.4 100 +19 +19 1011.6 986.5
04 13.06 СВ 1 25 км 1/0
[Ac As]
+19.2 +19.2 100 +22 +23 комфорт 1012.0 986.9
05 13.06 штиль 0 25 км 1/0
[Ac trans]
+22.0 +18.4 80 +27 +30 душно 1012.1 987.3
06 13.06 З 1 30 км 1/0
[Ci fib]
+24.1 +17.8 68 +28 +34 душно 1012.2 987.5 +17.4
07 13.06 Ю 4 30 км 4/0
[Ac cast Ci fib]
+26.5 +17.9 59 +31 +35 душно 1012.3 987.8
08 13.06 Ю 5 30 км 4/4 900 м
[Cu med, cong]
+26.4 +18.3 61 +31 +35 душно 1012.6 988.1
09 13.06 Ю 5 30 км 4/4 1050 м
[Cu med, cong]
+27.7 +18.4 57 +33 +37 очень
душно
1012.4 988.0
10 13.06 ЮЗ 4 30 км 4/3 1110 м
[Cu med, cong Ac cast]
+28.2 +19.2 58 +34 +41 очень
душно
1012.4 988.1
11 13.06 Ю 5 30 км 5/4 1200 м
[Cu med, cong Ac cast]
+29.1 +19.1 55 +35 +40 очень
душно
1012.0 987.7
12 13.06 ЮЗ 5 30 км 6/6 1300 м
[Cu med, cong]
+29.1 +19.1 55 +35 +38 очень
душно
1011.8 987.5
13 13.06 Ю 6 30 км 6/6 1320 м
[Cu med, cong]
+30.0 +19.4 53 +36 +38 очень
душно
1011.5 987.3
14 13.06 Ю 7 30 км 6/6 1410 м
[Cu med, cong]
+29.9 +18.9 52 +35 +36 очень
душно
1011.0 986.8
15 13.06 ЮВ 2 15 км гроза без осадков 9/9 1320 м
[Cb cap]
+27.9 +19.8 61 +34 +35 очень
душно
1010.8 986.5
16 13.06 СЗ 3 15 км гроза, ливневой дождь 9/8 1350 м
[Cb cap Ci ing]
+24.4 +21.9 86 +31 +32 очень
душно
1010.8 986.2
17 13.06 СЗ 4 2000 м гроза, ливневой дождь 10/10 1200 м
[Cb cap]
+20.2 +20.2 100 +24 +24 комфорт 1012.3 987.3
18 13.06 ЮВ 6-11
{17}
15 км гроза, ливневой дождь 9/9 1350 м
[Cb cap]
+18.4 +17.4 94 +19 +19 1013.8 988.6 +30.9 37
19 13.06 СЗ 3
{11}
20 км в посл. час гроза 9/8 1350 м
[Cb cap Ac cuf]
+17.9 +16.3 90 +18 +18 1013.7 988.4
20 13.06 З 2 10 км гроза, ливневой дождь 9/8 1200 м
[Cb cap Ac cuf]
+18.2 +17.6 96 +19 +19 1015.0 989.8
21 13.06 С 2
{11}
15 км в посл. час гроза {дождь} 8/5 1500 м
[Sc Ac cuf]
+18.2 +17.3 94 +19 +19 1014.7 989.5
22 13.06 С 1 15 км 3/0
[Ci fib]
+17.2 +17.0 99 +18 +18 1015.1 989.8
23 13.06 СЗ 2 10 км 4/0
[Ci sp]
+17.4 +16.9 97 +18 +18 1015.4 990.1
00 14.06 СЗ 2
{11}
10 км {гроза, дождь} 4/0
[Ci sp]
+18.2 +17.7 97 +19 +19 1015.7 990.4 10
01 14.06 С 1 10 км 4/0
[Ci sp]
+17.6 +17.6 100 +19 +19 1016.1 990.8
02 14.06 С 2 10 км 4/3 660 м
[Sc Ci sp]
+19.0 +18.4 96 +21 +21 комфорт 1016.6 991.4
03 14.06 СЗ 2 10 км 4/4 900 м
[Sc Ci sp]
+18.7 +18.3 98 +20 +20 1017.0 991.8
04 14.06 С 1 10 км 1/1 900 м
[Sc]
+18.8 +18.5 98 +21 +22 комфорт 1017.5 992.3
05 14.06 С 2 15 км 1/0
[Ac trans]
+20.7 +18.7 88 +25 +28 комфорт 1017.6 992.5
06 14.06 С 2 15 км ясно +22.5 +18.9 80 +28 +33 душно 1017.9 993.0 +16.9 10
07 14.06 В 1 15 км 1/1 570 м
[Cu hum]
+22.9 +19.5 81 +29 +38 очень
душно
1018.4 993.5
08 14.06 СВ 2 15 км 3/3 630 м
[Cu hum]
+24.1 +20.2 79 +30 +38 очень
душно
1018.5 993.7
09 14.06 В 3 15 км 5/5 700 м
[Cu Sc]
+25.2 +21.1 78 +32 +38 очень
душно
1018.6 993.9
10 14.06 В 2 20 км 4/4 720 м
[Cu med, cong]
+26.1 +20.7 72 +33 +43 очень
душно
1018.5 993.9
11 14.06 В 2 20 км 4/4 870 м
[Cu med, cong]
+27.1 +20.9 69 +34 +45 очень
душно
1018.2 993.7
12 14.06 СВ 2 20 км 3/3 960 м
[Cu med, cong]
+27.5 +20.8 67 +34 +46 очень
душно
1017.8 993.3
13 14.06 В 3 20 км 3/3 1110 м
[Cu med, cong]
+28.5 +21.8 67 +37 +45 очень
душно
1017.2 992.8
14 14.06 В 2 20 км 1/1 1300 м
[Cu med, cong]
+28.5 +21.5 66 +36 +46 очень
душно
1016.9 992.5
15 14.06 В 3 20 км 1/1 1380 м
[Cu med, cong]
+28.7 +22.0 67 +37 +43 очень
душно
1016.6 992.2
16 14.06 В 2 20 км 3/1 1410 м
[Cu med, cong Ci fib]
+28.6 +20.9 63 +36 +39 очень
душно
1016.3 991.9
17 14.06 В 3 15 км 1/0
[Ci fib]
+28.0 +21.3 67 +35 +37 очень
душно
1016.1 991.7
18 14.06 В 1 15 км 1/0
[Ci fib]
+26.5 +22.3 78 +35 +35 очень
душно
1016.1 991.6 +29.1
19 14.06 штиль 0 10 км 1/0
[Ci fib]
+24.8 +21.7 83 +32 +32 очень
душно
1016.2 991.5
20 14.06 З 1 10 км 1/0
[Ci fib]
+23.5 +21.6 89 +30 +30 очень
душно
1016.8 992.0
21 14.06 С 1 10 км ясно +23.7 +21.2 86 +30 +30 очень
душно
1016.5 991.7
22 14.06 штиль 0 8000 м дымка ясно +22.2 +20.8 92 +29 +29 очень
душно
1016.1 991.2
23 14.06 штиль 0 5000 м дымка 3/0
[Ci fib]
+20.1 +19.9 99 +24 +24 комфорт 1015.9 990.8
00 15.06 З 1 4000 м дымка 4/0
[Ci fib]
+18.9 +18.9 100 +22 +22 комфорт 1015.6 990.4
01 15.06 СЗ 1 3000 м дымка 4/0
[Ci fib]
+19.6 +19.6 100 +24 +24 комфорт 1014.9 989.8
02 15.06 З 1 2000 м дымка 4/0
[Ci fib]
+18.4 +18.4 100 +20 +20 1014.9 989.7
03 15.06 штиль 0 2000 м дымка 5/0
[Ci fib]
+17.4 +17.4 100 +17 +17 1014.6 989.3
04 15.06 штиль 0 3000 м дымка 5/0
[Ci fib]
+17.1 +17.1 100 +17 +18 1014.5 989.2
05 15.06 штиль 0 4000 м дымка 8/0
[Cs]
+21.4 +20.0 92 +27 +29 душно 1013.9 989.0
06 15.06 ЮВ 1 9000 м дымка 8/0
[Cs]
+22.1 +20.0 88 +28 +33 душно 1013.6 988.7 +16.9
07 15.06 ЮВ 3 20 км 8/0
[Cs]
+25.5 +19.4 69 +31 +37 очень
душно
1013.2 988.6
08 15.06 ЮВ 3 20 км 6/0
[Ci sp]
+26.8 +19.7 65 +33 +41 очень
душно
1013.3 988.8
09 15.06 Ю 4 20 км 4/0
[Ci sp]
+28.4 +19.9 60 +35 +44 очень
душно
1012.7 988.4
10 15.06 Ю 5 20 км 8/0
[Ci sp]
+29.3 +19.3 55 +35 +43 очень
душно
1012.5 988.2
11 15.06 Ю 5 20 км 6/0
[Ci sp]
+29.2 +21.2 62 +37 +45 очень
душно
1012.1 987.9
12 15.06 Ю 6 20 км 3/0
[Ci sp]
+30.2 +19.6 53 +36 +42 очень
душно
1011.7 987.5
13 15.06 Ю 7 20 км 1/1 1380 м
[Cu hum Ci sp]
+30.8 +18.5 48 +36 +39 очень
душно
1011.7 987.6
14 15.06 Ю 4 20 км 1/0
[Ac trans]
+31.0 +19.0 49 +36 +43 очень
душно
1011.4 987.3
15 15.06 ЮВ 3 20 км 1/0
[Ac trans Ci sp]
+30.7 +20.0 53 +37 +43 очень
душно
1010.5 986.4
16 15.06 ЮВ 4 20 км 1/0
[Ci sp]
+30.1 +20.4 56 +37 +40 очень
душно
1009.8 985.7
17 15.06 ЮВ 3 20 км 1/0
[Ci sp]
+28.8 +20.8 62 +36 +37 очень
душно
1009.8 985.6
18 15.06 Ю 3 20 км 5/0
[Ci sp]
+26.8 +19.0 62 +32 +32 очень
душно
1010.4 986.0 +31.4
19 15.06 Ю 1 20 км 8/0
[Ci sp]
+24.2 +18.6 71 +29 +29 душно 1010.6 986.0
20 15.06 штиль 0 20 км 8/0
[Ac trans Ci sp]
+23.2 +18.7 76 +29 +29 душно 1011.7 987.0
21 15.06 С 7
{11}
20 км 9/9 1500 м
[Cb cap]
+23.0 +15.8 64 +27 +27 душно 1012.7 987.9
22 15.06 С 4
{11}
20 км зарница 10/10 1470 м
[Cb cap]
+21.3 +16.9 76 +25 +25 комфорт 1013.6 988.6
23 15.06 С 3 20 км зарница 9/0
[Ac cuf Ci sp]
+21.0 +16.8 77 +25 +25 комфорт 1013.5 988.5
00 16.06 С 3
{11}
20 км зарница 9/0
[Ac cuf Ci sp]
+20.1 +16.1 78 +23 +23 комфорт 1013.5 988.4
01 16.06 С 3 20 км 9/6 1500 м
[Sc Ci sp]
+19.4 +17.0 86 +22 +22 комфорт 1014.5 989.4
02 16.06 С 2 20 км 4/4 1500 м
[Sc]
+18.3 +17.0 92 +19 +19 1014.0 988.8
03 16.06 СЗ 2 20 км 5/1 1500 м
[Sc Ci fib]
+17.5 +16.9 96 +18 +18 1014.0 988.7
04 16.06 штиль 0 20 км 1/0
[Ci fib]
+18.1 +17.1 94 +18 +19 1013.9 988.7
05 16.06 СЗ 2 20 км 3/0
[Ci sp]
+19.0 +17.0 88 +21 +23 комфорт 1014.5 989.3
06 16.06 С 2 20 км 1/0
[Ci fib]
+22.0 +16.6 71 +26 +31 душно 1014.7 989.8 +17.5
07 16.06 С 3 30 км 9/8 750 м
[Cu Sc Ci sp]
+22.4 +16.2 68 +27 +28 душно 1015.3 990.4
08 16.06 С 4 30 км 8/8 840 м
[Cu Sc]
+24.1 +17.7 67 +28 +30 душно 1015.5 990.7
09 16.06 С 5 30 км 9/9 840 м
[Cu Sc]
+23.4 +18.1 72 +29 +30 душно 1015.9 991.1
10 16.06 С 4 20 км 9/9 800 м
[Cb cap]
+23.7 +18.3 72 +28 +29 душно 1016.2 991.4
11 16.06 С 4
{11}
10 км гроза, ливневой дождь 10/10 500 м
[Cb cap]
+18.3 +18.3 100 +19 +19 1016.6 991.3
12 16.06 СВ 3
{13}
20 км в посл. час гроза 9/4 570 м
[Cu med, cong Ac cuf Cs]
+19.6 +18.3 92 +22 +27 комфорт 1019.1 993.9 23
13 16.06 ЮВ 1 30 км 9/4 500 м
[Cb calv Ac cuf Ci ing]
+20.9 +18.5 86 +26 +32 душно 1018.2 993.1
14 16.06 С 4 30 км 9/6 800 м
[Cu med, cong Ac As Ci ing]
+22.4 +19.8 85 +28 +30 душно 1017.1 992.2
15 16.06 С 4 30 км 9/8 800 м
[Cu med, cong Ci sp]
+23.0 +19.5 81 +30 +30 очень
душно
1016.6 991.7
16 16.06 С 3 30 км 9/8 800 м
[Cu Sc Ci sp]
+22.6 +19.4 82 +29 +29 очень
душно
1017.4 992.5
17 16.06 СЗ 4 30 км 9/9 870 м
[Cu Sc Ci sp]
+22.5 +17.6 74 +28 +28 душно 1018.1 993.1
18 16.06 С 4 30 км 9/8 1020 м
[Sc diur, vesp Ci sp]
+21.8 +15.4 67 +25 +25 комфорт 1018.2 993.2 +24.8 25
19 16.06 С 4 30 км 9/4 1200 м
[Sc diur, vesp Ac trans Ci sp]
+20.7 +15.3 71 +24 +24 комфорт 1018.1 993.0
20 16.06 СЗ 2 30 км 10/10 1020 м
[Sc]
+19.9 +16.7 82 +23 +23 комфорт 1019.3 994.1
21 16.06 СЗ 3 30 км 10/10 1410 м
[Sc]
+19.4 +16.2 82 +22 +22 комфорт 1020.1 994.8
22 16.06 СЗ 3 30 км 10/10 1410 м
[Sc]
+19.1 +15.8 81 +21 +21 комфорт 1019.7 994.4
23 16.06 С 2 30 км 9/9 1500 м
[Sc]
+19.1 +14.8 76 +21 +21 комфорт 1020.0 994.7
00 17.06 СЗ 2 30 км 9/9 1500 м
[Sc Ci sp]
+18.4 +15.1 81 +19 +19 1020.2 994.8
01 17.06 С 2 30 км 10/10 1320 м
[Sc]
+18.5 +14.4 77 +20 +20 1020.3 994.9
02 17.06 С 2 30 км 9/6 1500 м
[Sc Ac trans]
+18.2 +14.7 80 +19 +19 1020.1 994.7
03 17.06 С 2 30 км 9/9 1500 м
[Sc]
+18.4 +14.7 79 +19 +19 1020.8 995.4
04 17.06 С 2 20 км 9/9 1500 м
[Sc]
+18.7 +13.5 72 +20 +20 1020.7 995.3
05 17.06 С 3 30 км 9/9 1500 м
[Sc]
+19.0 +13.5 70 +20 +20 1021.0 995.6
06 17.06 С 3 30 км 9/4 1500 м
[Sc Ac trans]
+19.6 +13.8 69 +22 +23 комфорт 1021.0 995.7 +18.1
07 17.06 С 5 30 км 9/5 800 м
[Cu Sc Ac trans]
+20.9 +14.0 65 +24 +25 комфорт 1021.1 995.9
08 17.06 С 3 30 км 9/5 930 м
[Cu Sc Ac trans]
+21.3 +14.7 66 +24 +27 комфорт 1021.2 996.0
09 17.06 СВ 5 30 км 8/6 1080 м
[Cu Sc Ac trans]
+21.6 +14.3 63 +25 +27 комфорт 1021.3 996.1
10 17.06 СВ 4 30 км 8/6 1140 м
[Cu Sc Ac trans]
+22.6 +14.2 59 +26 +29 жарко 1021.0 995.9
11 17.06 СВ 4 30 км 8/4 1200 м
[Cu hum Ac trans]
+23.1 +14.4 58 +27 +31 душно 1020.7 995.7
12 17.06 СВ 3 30 км 6/4 1320 м
[Cu hum Ac trans]
+23.8 +14.2 55 +26 +33 жарко 1020.4 995.5
13 17.06 С 3 30 км 6/4 1410 м
[Cu hum Ci fib]
+24.2 +12.8 49 +26 +33 жарко 1020.1 995.2
14 17.06 СВ 4 30 км 6/3 1470 м
[Cu hum Ci fib]
+24.3 +12.9 49 +26 +31 жарко 1019.8 994.9
15 17.06 СВ 4 30 км 6/0
[Ci fib]
+24.3 +13.2 50 +26 +31 жарко 1019.2 994.3
16 17.06 СВ 4 30 км 6/0
[Ci fib]
+24.1 +13.0 50 +26 +29 жарко 1019.0 994.1
17 17.06 СВ 3 30 км 6/0
[Ci fib]
+23.2 +12.5 51 +26 +27 жарко 1018.8 993.8
18 17.06 СВ 2 30 км 6/0
[Ci fib]
+22.2 +13.0 56 +25 +25 комфорт 1018.8 993.7 +24.8
19 17.06 С 2 30 км 6/0
[Ci fib]
+21.3 +12.7 58 +24 +24 комфорт 1018.9 993.8
20 17.06 С 2 30 км 6/0
[Ci fib]
+19.8 +13.3 66 +22 +22 комфорт 1019.5 994.2
21 17.06 С 2 30 км 8/0
[Ci sp]
+19.1 +13.1 68 +21 +21 комфорт 1019.5 994.2
22 17.06 С 2 30 км 9/0
[Ci sp]
+18.7 +12.9 69 +20 +20 1019.5 994.1
23 17.06 С 1 30 км 6/0
[Ci fib]
+17.5 +12.6 73 +19 +19 1019.6 994.1
00 18.06 С 2 20 км 5/0
[Ci fib]
+17.3 +12.4 73 +18 +18 1019.4 993.9
01 18.06 СЗ 2 20 км 5/0
[Ci fib]
+15.3 +12.6 84 +15 +15 1019.4 993.7
02 18.06 СЗ 2 20 км 5/0
[Ci fib]
+14.6 +12.5 87 +14 +14 1019.2 993.5
03 18.06 СЗ 2 20 км 5/0
[Ci fib]
+14.5 +12.2 86 +14 +14 1019.2 993.5
04 18.06 СЗ 2 20 км 6/0
[Ci fib]
+16.5 +12.8 79 +17 +17 1018.9 993.4
05 18.06 С 3 30 км 6/0
[Ci fib]
+18.3 +12.7 70 +19 +20 1018.9 993.5
06 18.06 С 3 20 км 6/0
[Ci fib]
+20.1 +13.8 67 +23 +26 комфорт 1018.8 993.6 +14.0
07 18.06 С 3 20 км 6/0
[Ci fib]
+21.3 +14.9 67 +24 +31 комфорт 1018.4 993.3
08 18.06 В 2 20 км 6/0
[Ci fib]
+22.8 +15.6 64 +27 +38 душно 1018.1 993.1
09 18.06 В 3 20 км 8/0
[Ci fib]
+23.4 +15.2 60 +28 +38 душно 1017.8 992.9
10 18.06 СВ 3 20 км 8/0
[Ci sp]
+24.4 +13.9 52 +27 +39 жарко 1017.3 992.5
11 18.06 В 3 20 км 9/0
[Ci sp]
+25.1 +13.3 48 +27 +39 жарко 1017.1 992.3
12 18.06 ЮВ 3 20 км 9/1 1320 м
[Cu hum Ci sp]
+26.2 +15.6 52 +29 +40 жарко 1016.4 991.8
13 18.06 В 2 20 км 9/1 1410 м
[Cu hum Ci sp]
+25.9 +14.9 51 +29 +39 душно 1016.1 991.4
14 18.06 ЮВ 1 20 км 9/1 1500 м
[Cu hum Ci sp]
+26.2 +15.3 51 +29 +39 жарко 1015.5 990.9
15 18.06 В 1 20 км 9/1 1500 м
[Cu hum Ci sp]
+26.3 +15.4 51 +29 +36 жарко 1014.8 990.2
16 18.06 В 2 20 км 8/1 1500 м
[Cu hum Ci sp]
+26.7 +14.8 48 +29 +32 жарко 1014.6 990.0
17 18.06 В 1 20 км 4/1 1500 м
[Cu hum Ci fib]
+26.3 +16.3 54 +30 +31 душно 1014.3 989.7
18 18.06 СВ 2 20 км 1/0
[Ci fib]
+24.2 +16.5 62 +28 +28 душно 1014.6 989.9 +27.0
19 18.06 СВ 1 20 км 1/0
[Ci fib]
+22.8 +16.6 68 +27 +27 душно 1014.9 990.0
20 18.06 З 1 20 км 1/0
[Ci fib]
+20.7 +16.8 78 +25 +25 комфорт 1015.5 990.4
21 18.06 СЗ 1 20 км 1/0
[Ci fib]
+18.9 +16.9 88 +21 +21 комфорт 1015.4 990.2
22 18.06 СЗ 1 20 км 1/0
[Ci fib]
+18.0 +16.5 91 +19 +19 1015.3 990.0
23 18.06 штиль 0 20 км 1/0
[Ci fib]
+18.2 +16.0 87 +19 +19 1015.0 989.7
00 19.06 штиль 0 20 км 1/0
[Ci fib]
+16.7 +15.6 93 +17 +17 1015.2 989.8
01 19.06 СЗ 1 20 км 1/0
[Ci fib]
+17.0 +15.6 91 +18 +18 1014.8 989.4
02 19.06 СЗ 1 20 км 1/0
[Ci fib]
+15.6 +14.8 95 +16 +16 1014.6 989.1
03 19.06 СЗ 1 20 км 1/0
[Ci fib]
+15.3 +14.8 97 +16 +16 1014.5 989.0

 

Местоположение метеостанции Простеёв (Чехия): широта 49.45 долгота 17.13 высота над уровнем моря 216 м.

В архиве по умолчанию представлена погода в Простеёве за последнюю неделю. Архивные данные за месяц целиком и за предыдущие месяцы, начиная с января 2011 года, Вы можете получить, выбрав интересующий диапазон дат из раскрывающегося списка и нажав кнопку "Ввод!".


*Определитесь, кто Вы:
робот инопланетянин человек

Внимание! Время в таблицах - всемирное. Для получения местного времени необходимо прибавить поправку, которая равна 1 ч.

Смотрите также архив погоды в соседних городах и на ближайших метеорологических станциях:

Погода в Луке (Чехия) (26 км)
Погода в Холесове (Чехия) (35 км)
Погода в Брно (Чехия) (46 км)
Погода в Червене (Чехия) (47 км)
Погода в Хосталкова, Маруска (Чехия) (51 км)
Погода в Остраве (Чехия) (76 км)
Погода в Усти-над-Орлици (Чехия) (78 км)
Погода в Замке Namest nad Oslav (Чехия) (80 км)
Погода на Шераке (Чехия) (81 км)
Погода на АЭС Дукованы (Чехия) (82 км)

Пояснения к столбцам:

Ветер - указаны скорость ветра в м/с - средняя за 10 мин, порывы в срок и между сроками (в фигурных скобках) и направление, откуда дует ветер: С - северный, СВ - северо-восточный, В - восточный, ЮВ - юго-восточный, Ю - южный, ЮЗ - юго-западный, З - западный, СЗ - северо-западный.
Видимость - горизонтальная дальность видимости в метрах или километрах. При видимости от 1 до 10 км при отсутствии осадков обычно наблюдается дымка, при ухудшении видимости до 1 км и менее - туман. В сухую погоду видимость может ухудшаться дымом, пылью или мглою.
Явления - указаны атмосферные явления, наблюдавшиеся в срок или в последний час перед сроком; фигурными скобками обозначены явления, наблюдавшиеся между сроками (за 1-3 часа до срока); квадратными скобками обозначены град или гололедные отложения с указанием их диаметра в мм.
Облачность - указаны через наклонную черту общая и нижняя облачность в баллах и высота нижней границы облаков в метрах; квадратными скобками обозначены формы облаков: Ci - перистые, Cs - перисто-слоистые, Cc - перисто-кучевые, Ac - высококучевые, As - высокослоистые, Sc - слоисто-кучевые, Ns - слоисто-дождевые, Cu - кучевые, Cb - кучево-дождевые. Подробнее классификацию облаков см. в Атласе облаков (PDF).
T - Температура воздуха - температура, измеренная на высоте 2 м над землей.
Td - Температура точки росы - температура, при понижении до которой содержащийся в воздухе водяной пар достигнет насыщения.
f - Относительная влажность воздуха - влажноcть воздуха, измеренная на высоте 2 м над землей.
Te - Эффективная температура - температура, которую ощущает одетый по сезону человек в тени. Характеристика душности погоды. При расчете учитывается влияние влажности воздуха и скорости ветра на теплоощущения человека.
Tes - Эффективная температура на солнце - температура, которую ощущает человек, с поправкой на солнечный нагрев. Характеристика знойности погоды. Зависит от высоты солнца над горизонтом, облачности и скорости ветра. Ночью, в пасмурную погоду, а также при ветре 12 м/с и более поправка равна нулю.
P - Атмосферное давление - приведенное к уровню моря атмосферное давление.
Po - Атмосферное давление - измеренное на уровне метеостанции атмосферное давление.
Tmin - Минимальная температура - минимум температуры воздуха на высоте 2 м над землей.
Tmax - Максимальная температура - максимум температуры воздуха на высоте 2 м над землей.
R - Количество осадков - Количество выпавших осадков за период времени, мм. При наведении курсора мыши на число - период времени, за который выпало указанное количество осадков.
R24 - Количество осадков - Количество выпавших осадков за 24 часа, мм.
S - Снежный покров - Высота снежного покрова, см. При наведении курсора мыши на число - состояние снежного покрова и степень покрытия местности в баллах.